Lapse_Rate
1.8 5.0 7.4 8.7 6.5 6.5 6.5 6.5 6.5 6.5 6.5 7.2 7.1 6.4 6.5 6.3 6.5 6.5 8.8 9.2 9.4 9.1 6.7 6.4 5.8 5.9 5.8 5.8 5.7 5.6 5.7 5.7 5.5 5.6 5.7 5.6 5.6 5.6 5.7 5.8 5.8 6.0 6.2 6.3 6.2 6.0 6.2 6.1 6.0
5.9 9.0 9.1 7.7 6.5 6.5 6.5 6.5 6.5 6.5 6.9 7.6 7.6 7.4 7.0 6.5 8.1 8.3 8.7 9.3 9.7 9.6 8.3 6.7 5.5 5.7 5.7 5.7 5.7 5.7 5.8 5.7 5.7 5.9 5.8 5.8 6.2 6.2 6.2 6.2 6.2 6.2 6.2 6.2 6.0 6.1 6.2 6.2 6.1
5.0 9.0 7.6 6.5 6.5 6.5 6.5 6.5 6.5 6.8 7.4 7.4 7.2 7.9 7.5 7.2 8.3 8.5 9.3 9.4 9.6 8.8 6.8 5.9 5.5 5.6 5.8 5.7 5.5 5.7 5.7 5.7 5.7 5.8 5.9 6.2 6.2 6.3 6.4 6.4 6.3 6.6 6.4 6.3 6.2 6.4 6.5 6.3 6.4
9.1 8.0 7.7 6.5 6.5 6.5 6.5 6.5 6.7 6.6 7.4 7.7 7.6 6.6 8.1 8.7 8.6 9.1 9.6 9.4 8.4 9.1 6.9 5.7 5.8 5.7 5.7 5.6 5.4 5.6 5.6 5.7 5.8 5.9 5.9 6.2 6.1 6.3 6.5 6.4 6.3 6.3 6.3 6.4 6.4 6.2 6.3 6.2 6.3
7.8 5.4 6.5 6.5 6.5 6.5 6.5 6.9 7.1 6.5 6.9 7.2 7.6 6.7 7.3 8.6 9.3 9.5 9.5 9.7 9.4 9.1 7.1 6.2 5.4 5.5 5.5 5.5 5.5 5.4 5.4 5.6 5.6 5.7 5.9 6.2 6.3 6.6 6.4 6.3 6.3 6.3 6.1 6.2 6.4 6.3 6.3 6.3 6.1
6.6 7.3 6.5 6.5 6.5 6.5 6.5 7.2 7.1 6.8 7.2 7.4 7.2 7.1 7.5 8.9 9.0 9.3 9.4 9.6 9.8 9.5 8.3 6.8 5.5 5.7 5.8 5.8 5.7 5.6 5.6 5.7 5.9 6.1 6.0 6.2 6.4 6.5 6.3 6.3 6.2 6.1 6.1 6.5 6.4 6.3 6.0 5.9 6.1
6.7 6.5 6.5 6.5 6.5 6.5 6.5 7.5 6.8 6.8 7.0 7.0 7.9 6.5 7.8 8.5 9.2 9.4 9.5 8.3 9.6 9.6 9.2 6.9 6.2 5.7 5.5 5.8 5.9 5.8 5.7 5.8 5.9 6.1 6.2 6.2 6.2 6.1 6.1 6.2 6.3 6.4 6.5 6.5 6.5 6.4 5.9 5.8 6.0
6.5 6.5 6.5 6.5 6.5 6.5 6.8 7.2 7.6 7.2 6.8 8.3 8.3 6.6 6.9 8.4 9.3 9.5 8.9 8.9 9.4 9.2 9.1 8.8 7.3 7.0 6.4 5.9 5.9 5.9 5.9 6.0 6.1 6.1 6.2 6.3 6.1 6.3 6.8 6.3 6.9 6.8 6.6 6.1 6.2 6.0 5.8 5.8 5.9
7.7 6.5 6.5 6.5 6.5 6.5 7.2 6.5 7.6 8.1 7.5 7.8 8.1 8.0 8.5 9.0 9.3 9.2 9.0 9.1 9.2 8.9 9.4 9.2 8.5 8.2 7.8 7.1 6.5 6.1 5.9 6.0 6.1 6.1 6.3 6.2 7.2 7.4 5.5 5.5 5.7 6.4 6.6 5.9 5.9 6.1 6.0 5.8 5.9
6.6 6.5 6.5 6.5 6.5 6.5 6.3 6.6 7.2 7.1 7.1 7.2 7.7 8.4 8.8 9.0 8.8 8.5 8.6 8.5 8.9 8.8 9.2 9.6 9.5 8.0 7.8 9.2 6.4 6.6 6.7 6.4 6.3 7.2 6.9 6.7 8.7 7.7 5.6 5.8 6.6 6.7 6.7 6.5 6.6 6.4 6.5 6.6 7.1
6.7 6.5 6.5 6.7 7.1 5.5 6.8 7.0 3.0 6.9 6.5 7.3 7.2 7.9 8.5 8.6 8.6 8.5 8.6 8.7 8.7 9.0 8.8 9.4 8.0 7.5 8.1 6.9 7.3 7.5 7.4 8.2 7.9 7.7 8.0 7.5 7.6 4.5 8.2 6.1 6.5 7.8 7.1 7.8 7.5 6.8 7.4 8.3 8.3
6.5 6.7 6.9 7.0 7.3 6.8 6.5 7.4 7.1 5.8 4.8 8.0 8.2 8.3 8.4 8.4 8.5 8.6 8.6 8.7 8.8 8.9 8.7 7.2 6.1 6.8 8.1 6.2 8.3 8.4 8.7 8.0 7.1 7.8 8.1 7.7 7.7 7.4 7.6 7.8 7.9 7.9 7.6 6.7 6.4 7.1 7.0 7.8 7.5
6.5 6.5 7.1 7.3 7.3 7.3 7.5 6.9 6.8 7.2 7.7 8.4 8.4 8.4 8.3 8.4 8.5 8.7 8.9 9.0 9.0 8.9 9.2 9.2 7.3 6.9 8.4 7.7 7.5 7.1 7.4 8.1 8.3 7.4 8.0 8.8 7.2 6.7 7.3 6.8 7.4 7.7 8.0 7.9 7.7 7.3 7.4 7.1 7.9
6.9 6.8 6.8 7.2 7.1 7.2 6.7 6.8 7.2 7.4 8.1 8.0 8.1 8.1 8.3 8.4 8.5 8.5 8.7 8.7 8.8 9.0 9.1 9.3 8.3 7.3 7.8 7.3 7.2 7.3 8.2 8.2 7.9 7.8 8.2 7.7 7.2 6.6 6.9 6.2 6.2 7.0 7.2 7.3 6.2 6.2 6.0 5.9 6.9
7.0 6.5 6.5 6.7 6.9 6.6 7.3 6.5 6.5 7.6 8.0 7.7 7.9 8.0 8.2 8.3 8.6 8.4 8.7 8.7 8.9 9.0 8.4 8.2 9.0 8.2 7.1 7.2 7.1 7.2 7.4 9.1 8.6 8.0 7.4 7.5 6.8 6.6 5.6 5.2 5.1 5.8 6.4 6.4 5.9 6.1 6.3 6.3 6.9
6.5 6.5 6.5 6.5 6.7 6.9 6.8 6.5 6.6 7.7 7.6 7.4 7.7 7.9 8.0 8.2 8.5 8.7 8.9 8.9 8.9 8.9 7.1 6.9 8.3 8.3 7.7 6.8 6.8 7.0 7.4 7.8 8.7 8.3 7.8 7.4 8.5 8.1 5.9 5.3 5.4 5.9 5.6 5.4 5.8 6.2 7.2 7.5 7.0
6.5 6.5 6.5 6.5 6.7 6.5 6.5 6.5 6.7 7.7 7.5 7.2 7.4 7.7 7.9 8.0 8.4 8.6 8.9 8.6 8.3 8.3 7.9 7.8 7.9 8.0 8.2 7.3 7.4 7.4 8.4 7.9 8.5 8.0 7.8 8.1 8.0 7.8 6.1 5.9 6.5 6.5 6.0 5.7 6.3 6.7 6.5 5.7 5.6
6.5 6.5 6.5 6.5 6.5 6.5 6.5 6.5 6.5 7.3 7.3 7.2 7.4 7.6 7.7 7.9 8.1 8.4 8.7 8.1 8.6 8.1 7.4 7.0 7.9 8.0 7.2 6.7 6.8 8.0 7.4 7.6 8.1 8.1 6.4 7.3 7.7 7.2 6.6 6.2 6.2 6.5 5.7 5.5 4.9 5.5 5.7 6.5 6.8
6.5 6.5 6.5 6.5 6.5 6.5 6.5 6.5 6.5 7.0 7.1 7.1 7.3 7.4 7.6 7.8 8.3 8.6 8.7 8.9 9.1 9.0 7.4 6.7 7.0 8.4 7.9 7.0 6.4 6.4 6.8 6.7 6.5 7.0 7.3 7.2 7.3 7.1 7.1 6.1 6.4 6.5 6.4 6.3 6.5 6.6 6.1 6.7 6.5
6.5 6.5 6.5 6.5 6.5 6.5 6.5 6.5 6.5 6.6 6.7 7.1 7.2 7.3 7.5 7.8 8.0 8.3 8.5 8.8 8.9 8.4 7.8 8.1 7.6 7.3 7.4 6.7 6.9 7.1 7.0 7.2 6.4 6.9 7.8 8.3 8.6 8.1 8.0 7.5 7.5 7.3 7.2 6.8 7.6 6.7 6.1 6.1 5.5
6.5 6.5 6.5 6.5 6.5 6.5 6.5 6.5 6.5 6.5 6.9 7.2 7.5 7.6 7.8 7.7 7.9 8.2 8.4 8.5 8.8 8.4 8.1 8.1 7.9 7.0 7.6 7.8 6.8 6.3 7.3 7.6 7.2 8.1 6.7 8.0 8.2 8.0 8.4 8.7 8.0 7.6 7.5 7.6 7.3 7.1 6.2 6.0 6.1
6.5 6.5 6.5 6.5 6.5 6.5 6.5 6.5 6.5 6.5 6.5 6.5 7.1 7.4 7.6 7.8 8.1 8.3 8.4 8.5 8.6 8.4 8.7 7.8 8.1 8.1 7.9 8.3 8.2 6.8 7.0 6.4 7.1 7.6 6.4 6.7 7.8 7.5 7.8 8.0 8.5 7.8 7.5 6.8 7.0 6.6 6.0 5.9 5.6
6.5 6.5 6.5 6.5 6.5 6.5 6.5 6.5 6.5 6.5 6.5 6.5 6.8 7.2 7.6 7.9 8.1 8.2 8.4 8.4 8.6 8.6 8.8 8.3 8.2 7.9 7.1 6.1 6.3 7.0 7.0 6.8 7.4 7.7 8.0 7.7 6.7 7.2 8.3 9.0 8.6 7.8 7.4 6.9 6.6 6.6 6.5 6.3 6.0
6.5 6.5 6.5 6.5 6.5 6.5 6.5 6.5 6.5 6.5 6.5 6.5 6.6 7.2 7.6 7.9 8.2 8.3 8.4 8.3 8.4 8.7 8.7 8.5 7.2 6.2 5.8 6.1 7.4 8.5 9.1 8.3 7.2 7.2 7.3 7.4 7.6 7.7 7.5 8.0 7.5 7.1 7.2 7.3 7.3 6.8 6.7 6.5 6.0
6.5 6.5 6.5 6.5 6.5 6.5 6.5 6.5 6.5 6.5 6.5 6.5 6.6 6.4 7.6 8.0 8.0 8.0 7.8 8.1 7.6 7.8 8.3 7.7 6.5 5.4 5.1 6.8 8.6 9.1 8.9 9.0 8.6 7.9 8.1 7.8 7.4 8.0 6.7 7.5 7.8 7.9 7.9 7.8 7.3 7.1 6.8 6.8 7.0
6.5 6.5 6.5 6.5 6.5 6.5 6.5 6.5 6.5 6.5 6.8 7.2 7.5 7.7 7.8 7.7 7.7 7.7 7.5 7.5 7.6 7.9 7.7 7.4 6.1 4.7 5.1 7.3 8.3 8.2 8.6 8.3 8.1 7.6 7.3 7.3 7.7 8.2 8.6 8.3 9.0 8.5 8.8 8.5 8.3 7.5 7.6 7.4 7.0
6.5 6.5 6.5 6.5 6.5 6.5 6.5 6.5 6.5 6.5 6.5 6.7 6.9 7.1 7.3 7.7 7.8 8.0 8.1 7.9 8.0 7.9 7.4 6.8 5.8 5.0 5.4 7.7 7.6 8.1 8.4 8.4 7.7 7.8 7.6 7.6 8.8 8.5 7.6 8.2 8.3 8.3 7.9 7.7 7.7 7.7 7.6 7.7 7.9
6.5 6.5 6.5 6.5 6.5 6.5 6.5 6.5 6.5 6.5 6.5 6.5 6.5 6.8 7.2 7.6 7.8 8.1 8.1 7.8 7.8 8.4 7.9 6.9 6.1 5.9 5.9 7.8 7.3 8.1 7.9 8.2 8.7 8.6 7.8 8.1 8.1 8.4 8.5 8.6 8.6 8.3 7.8 7.6 7.2 7.7 7.0 7.2 7.1
6.5 6.5 6.5 6.5 6.5 6.5 6.5 6.5 6.5 6.5 6.5 6.5 6.5 7.0 7.2 7.5 7.7 7.9 8.0 7.7 7.9 8.3 8.1 7.5 6.8 7.1 7.3 7.8 7.9 8.3 8.2 8.8 8.5 8.5 8.6 9.0 8.9 8.8 8.6 8.4 8.1 8.1 7.8 7.7 8.0 7.6 7.2 7.2 7.7
6.5 6.5 6.5 6.5 6.5 6.5 6.5 6.5 6.5 6.5 6.5 6.7 6.7 7.1 7.4 7.6 7.6 7.8 8.1 7.9 8.3 8.1 8.2 7.9 7.9 8.1 8.2 8.0 7.6 7.4 7.9 8.3 8.9 8.7 9.0 9.1 8.7 8.7 8.6 8.3 8.1 8.1 8.0 7.7 7.8 7.5 7.5 7.3 6.8
Wind_Speed
9 13 12 9 6 10 15 15 15 16 17 8 28 18 14 6 6 13 15 11 14 15 17 15 15 16 18 18 19 20 20 19 19 18 19 19 16 15 15 14 13 13 12 11 10 9 8 7 6
12 17 8 7 6 15 14 17 17 13 7 19 25 22 24 24 24 20 15 15 14 15 18 16 15 16 16 16 18 19 19 18 17 16 17 17 16 14 14 13 12 11 11 10 9 7 6 4 3
15 19 7 6 11 15 14 14 10 11 10 19 24 21 15 20 18 12 16 15 16 15 17 14 14 16 16 15 16 18 18 17 16 16 15 14 15 14 13 12 11 9 9 8 8 6 4 4 3
8 8 8 14 19 18 15 15 16 18 19 21 19 14 21 25 21 21 19 16 16 13 18 14 14 15 14 15 15 16 16 16 15 15 13 13 14 13 11 10 9 8 7 6 6 5 4 4 4
12 3 3 14 18 16 15 17 15 14 18 20 22 19 23 27 23 23 19 18 15 15 17 16 15 16 16 16 16 16 15 15 14 13 12 11 11 11 9 8 7 5 5 4 4 3 3 4 5
2 7 4 14 16 16 17 14 14 18 23 21 20 20 20 22 20 21 18 16 17 13 19 17 14 14 15 14 14 14 14 13 12 10 9 9 8 7 6 5 4 4 3 3 3 4 4 3 5
6 10 4 22 18 16 7 18 15 17 20 19 18 20 16 18 17 20 18 13 15 16 17 15 16 15 14 14 13 13 13 12 10 9 8 7 6 7 6 5 3 1 1 2 5 5 3 5 6
7 4 7 3 19 10 13 15 21 19 16 21 22 13 17 18 19 18 15 12 19 15 11 14 15 14 14 13 14 13 12 11 9 8 7 7 8 9 6 5 4 4 4 2 4 4 4 7 8
32 7 5 9 12 19 20 16 18 17 14 13 11 20 21 19 18 17 21 14 12 12 9 12 12 13 11 15 13 12 11 10 9 8 8 9 12 11 12 8 4 11 6 6 6 6 8 7 9
6 3 11 10 12 22 25 2 16 13 12 12 18 23 21 18 14 19 13 12 12 12 13 11 10 14 13 11 16 15 13 13 12 13 14 12 6 4 11 1 6 12 7 7 8 9 7 7 9
4 12 6 16 11 24 28 23 11 24 12 16 23 24 21 18 14 11 17 14 9 12 9 11 7 8 8 5 13 12 13 13 14 13 10 8 2 7 2 9 8 7 6 5 7 7 7 5 8
6 13 13 8 21 14 18 21 17 24 14 18 20 22 20 18 15 13 11 13 11 7 6 14 10 8 11 15 7 8 9 8 7 10 9 7 4 5 1 2 4 6 6 5 4 4 6 7 6
9 14 9 12 16 17 20 16 17 20 14 19 20 19 18 16 14 13 11 11 11 9 7 7 10 5 1 4 6 4 5 7 8 11 10 8 4 2 3 3 6 9 8 3 4 4 6 6 9
12 11 10 15 12 12 14 15 16 15 18 19 18 16 15 15 14 13 11 11 10 8 8 8 9 7 4 2 4 3 1 3 4 4 3 1 5 6 2 2 6 3 8 3 8 6 5 5 8
9 10 9 11 16 12 18 15 14 16 15 17 16 15 14 13 13 12 11 10 10 9 9 8 7 9 8 6 4 3 7 7 6 5 6 9 11 10 6 4 4 7 7 6 7 9 9 5 7
13 14 12 17 19 3 8 11 13 15 15 15 15 15 14 13 12 11 11 10 11 8 9 8 7 10 9 7 5 5 7 8 4 7 10 13 11 7 6 3 4 9 5 7 5 5 4 5 4
13 13 14 15 20 10 4 11 16 17 15 13 14 13 13 11 12 14 14 10 8 9 9 7 8 7 7 7 6 8 8 5 8 8 7 5 3 3 5 5 5 7 6 5 5 5 3 3 6
17 17 20 15 14 14 14 10 15 17 17 14 13 12 13 14 13 16 16 13 12 12 8 8 4 3 10 5 3 3 3 5 8 7 5 7 4 7 5 7 8 6 3 5 5 5 4 5 6
15 13 17 16 18 25 13 16 18 18 17 16 16 14 15 15 16 15 17 18 15 13 10 8 8 6 4 4 2 2 3 3 5 6 8 7 4 6 4 3 5 7 6 7 5 4 5 6 4
19 11 12 13 16 11 16 20 18 17 17 18 17 16 16 16 16 13 13 10 11 11 13 9 9 7 5 4 3 3 3 4 5 7 7 3 6 6 5 4 4 5 4 6 4 3 3 4 5
16 11 10 15 12 4 12 18 13 15 15 17 18 18 17 17 19 16 15 13 12 10 11 9 9 9 6 6 4 4 4 3 3 1 3 3 6 8 7 5 4 5 5 5 4 3 6 4 4
18 12 18 15 14 11 15 13 18 23 18 16 18 19 19 19 18 18 17 15 14 13 11 11 8 8 8 5 2 5 1 3 2 1 5 3 4 4 6 7 7 4 4 6 5 4 4 3 5
12 16 18 13 11 14 14 9 15 16 16 16 19 20 20 21 21 20 19 16 15 15 12 11 10 7 7 6 4 3 4 4 3 3 3 2 5 8 8 4 4 4 4 6 6 5 5 5 4
18 10 17 9 11 14 17 12 6 9 17 17 9 18 20 21 21 19 19 18 14 14 13 12 10 7 6 6 6 4 1 3 3 4 3 5 2 4 5 7 5 5 5 5 5 5 6 5 5
18 11 8 9 11 13 15 15 10 19 22 21 20 31 21 19 18 17 19 19 15 16 13 12 11 9 8 6 5 3 3 2 3 5 3 3 4 2 6 3 2 3 5 5 5 5 6 5 4
13 16 9 13 12 13 13 9 16 10 15 27 25 27 22 21 19 19 17 18 17 16 14 13 13 11 9 7 6 5 3 3 3 4 4 3 3 3 2 1 3 5 6 5 3 4 4 5 3
15 17 18 18 13 6 7 9 11 9 9 5 9 11 18 21 20 21 19 18 17 15 14 14 13 11 10 8 6 6 5 4 2 2 1 4 1 4 5 3 5 5 6 5 6 4 5 3 3
16 17 13 12 9 10 8 9 10 15 10 11 9 6 7 17 21 19 19 20 18 16 13 15 13 11 10 9 9 7 6 6 4 3 3 3 4 4 4 5 5 6 7 6 6 4 6 5 3
15 11 9 12 10 9 9 4 13 11 8 7 7 8 4 9 15 18 15 17 18 17 15 14 13 12 10 8 7 5 4 5 6 4 5 4 4 4 4 5 6 6 8 7 6 5 7 8 3
21 16 10 9 9 8 9 5 13 11 10 9 7 3 6 2 11 16 15 17 18 17 16 15 14 12 11 8 7 7 5 4 3 4 4 3 4 4 5 5 6 7 8 6 6 6 6 6 5
Wind_Direction
249 223 218 248 227 82 74 43 67 73 64 91 153 86 124 200 208 109 141 116 128 108 123 111 109 107 106 106 106 105 106 100 100 101 97 94 96 97 96 94 92 87 84 84 81 79 75 79 83
294 294 247 268 106 81 63 60 61 72 95 77 85 105 83 78 89 113 115 123 115 126 111 113 115 111 101 105 106 104 107 107 105 103 95 95 97 96 95 92 86 86 86 88 84 84 90 88 69
270 267 256 173 83 87 89 91 89 110 69 80 74 80 91 108 111 104 124 114 100 89 102 117 116 115 112 106 106 107 107 107 109 102 101 99 96 94 94 92 92 90 89 90 91 81 69 55 24
340 327 244 88 87 93 103 101 87 78 79 96 104 71 85 97 102 121 121 114 105 114 110 120 124 126 126 121 117 112 111 111 112 112 113 111 110 108 106 106 106 99 89 80 83 84 61 33 4
111 257 127 107 103 103 91 106 100 96 95 95 99 99 90 100 118 123 136 130 126 117 121 123 127 131 135 135 132 125 117 116 119 119 122 119 116 119 117 115 112 101 85 70 59 49 25 4 344
95 243 146 104 109 69 103 85 97 98 100 105 109 109 104 116 126 129 137 135 130 136 116 125 126 127 130 132 132 128 126 121 121 123 125 127 128 125 139 133 122 115 97 32 7 359 352 336 319
322 287 20 87 86 79 304 114 99 102 118 122 120 116 127 136 139 135 140 105 114 128 120 138 130 131 134 139 139 141 139 138 135 133 135 138 156 173 167 161 166 168 34 345 331 337 305 302 295
246 225 112 243 141 144 201 118 134 135 129 132 134 140 148 135 148 123 113 142 130 126 129 135 139 144 149 146 148 150 151 153 157 156 159 174 200 203 179 9 278 221 251 277 296 297 289 277 279
205 273 88 53 97 131 123 119 86 99 128 150 123 141 140 147 143 131 128 128 126 128 136 124 141 143 149 140 152 157 161 166 170 176 184 203 233 171 132 227 215 274 243 242 252 267 267 277 278
201 142 129 148 158 82 356 98 114 136 130 126 119 125 139 152 162 141 160 117 158 144 153 158 166 149 177 164 156 167 171 184 191 196 181 217 234 80 159 204 270 264 237 260 252 254 257 267 269
336 87 83 104 83 132 174 79 96 2 138 126 133 140 149 151 158 161 145 155 162 152 176 155 115 175 163 132 190 173 182 194 197 206 203 207 93 163 270 137 206 259 231 240 181 248 258 249 256
104 66 74 85 61 8 74 83 107 141 232 128 141 142 150 156 159 162 155 148 143 162 155 136 154 207 151 176 173 192 185 156 184 192 192 211 212 77 64 341 310 264 109 102 59 318 357 326 300
117 88 87 105 150 85 70 67 120 178 181 130 138 147 152 158 163 159 159 156 145 167 181 137 109 101 338 231 6 81 147 212 171 178 187 226 177 164 256 328 323 322 346 328 201 245 290 279 268
101 137 167 109 90 117 117 107 111 109 125 130 144 149 157 162 165 159 167 157 165 179 171 148 134 151 151 270 325 356 159 67 317 140 152 173 186 162 224 261 272 280 295 322 338 344 316 302 296
129 135 130 146 113 56 111 97 113 127 136 147 147 156 159 156 164 160 174 167 174 176 172 156 171 167 162 191 231 239 295 243 204 227 246 226 200 196 180 203 252 280 289 288 262 257 253 269 284
169 170 177 136 110 77 65 117 134 150 152 149 164 158 154 148 161 162 170 172 172 183 135 147 191 179 182 181 185 215 241 258 245 218 238 238 231 209 177 205 235 254 273 293 293 300 288 269 278
208 197 154 125 125 154 154 162 158 165 167 169 170 152 150 155 155 145 135 147 154 146 160 167 186 178 171 190 189 212 227 243 268 247 261 238 169 228 214 257 250 238 247 253 261 268 259 286 292
202 216 163 160 180 158 169 163 168 175 164 170 175 164 163 165 167 151 159 167 192 167 187 159 160 186 169 132 218 211 240 259 274 286 329 326 329 285 284 270 272 278 267 263 265 264 281 259 260
212 221 157 244 155 163 174 172 176 185 162 175 172 177 176 175 156 157 161 172 179 167 138 139 147 142 131 146 177 213 232 229 248 250 248 252 260 268 257 254 257 263 245 255 274 279 290 298 291
237 205 204 203 154 179 154 183 190 189 173 174 177 182 185 171 153 161 150 173 158 154 152 156 154 152 165 188 193 225 233 214 217 226 207 215 291 189 218 256 315 310 334 329 278 265 300 298 293
251 238 222 199 150 178 199 155 137 259 195 174 181 183 184 174 166 168 169 177 167 154 151 154 153 167 177 198 188 197 241 240 281 9 124 91 16 333 329 330 311 303 299 284 324 338 295 287 300
232 216 261 229 176 212 179 230 168 218 188 195 190 183 187 180 172 172 179 180 170 159 161 154 162 167 169 121 26 96 352 283 84 254 93 24 338 7 307 280 279 344 341 305 316 317 308 276 281
240 227 231 238 240 235 231 231 159 185 188 198 201 191 194 181 181 178 185 179 170 161 166 153 162 133 120 121 58 28 30 10 7 51 39 330 263 253 247 261 12 343 319 318 315 314 291 293 272
222 255 205 224 253 252 228 216 159 180 211 215 253 215 196 188 184 182 179 171 170 160 167 158 137 134 138 141 151 156 155 51 343 20 330 277 355 273 92 43 21 317 294 300 317 300 286 275 293
213 206 208 226 231 242 238 223 237 176 216 206 176 229 196 191 186 184 178 171 170 164 170 146 150 161 159 172 159 139 111 94 238 216 264 11 286 31 79 37 322 324 307 299 292 307 297 289 307
193 221 214 207 232 230 209 184 222 194 175 200 207 203 194 190 185 182 180 171 166 167 164 159 161 167 173 176 149 104 105 253 221 53 43 338 336 341 359 312 286 295 290 278 305 292 300 298 347
185 234 241 258 265 255 181 198 222 160 159 157 179 214 193 186 191 183 174 165 166 173 169 154 162 178 178 170 148 165 173 188 296 52 20 267 29 331 55 326 294 285 280 281 274 276 310 8 356
218 207 234 249 261 281 237 234 215 157 158 173 182 213 233 196 185 188 181 168 167 176 170 155 166 184 184 167 164 196 172 170 184 179 227 260 257 264 276 285 290 310 308 293 302 302 300 329 333
208 230 217 247 229 253 256 82 100 136 155 147 166 175 193 231 201 183 182 169 167 174 170 165 168 184 186 180 169 151 158 181 174 190 221 243 275 275 273 275 277 287 291 291 288 277 256 268 296
226 197 214 245 254 281 303 313 132 141 152 169 123 170 151 207 273 172 181 169 168 175 172 173 172 181 193 176 166 159 166 185 199 197 226 250 267 269 274 269 270 280 285 283 299 290 307 306 293